When you browse on this site, cookies collect data to enhance your experience and personalize the content and advertising you see.
Visit our Privacy Policy to learn more. By continuing to use the site, you agree to this use of cookies and data.
  • In Romania
  • List of Countries
  • For 7 days
  • Water Temperature
  • Satellite Maps
  • Weather Map
  • Weather Widgets
  • user-avatar
    Login

    Hourly Weather Kangly

    Today, 20 November, Tuesday

    Time Temperature Precipitation Wind Pressure Humidity
    00:00 +1°C° 0 mm 3 mps 737 mmHg 78%
    01:00 +2°C° 0 mm 3 mps 737 mmHg 78%
    02:00 +2°C° 0 mm 3 mps 736 mmHg 77%
    03:00 +2°C° 0 mm 3 mps 736 mmHg 77%
    04:00 +2°C° 0 mm 3 mps 736 mmHg 77%
    05:00 +3°C° 0 mm 2 mps 736 mmHg 78%
    06:00 +3°C° 0 mm 2 mps 736 mmHg 78%
    07:00 +3°C° 0.1 mm 2 mps 736 mmHg 79%
    08:00 +3°C° 0.1 mm 2 mps 735 mmHg 79%
    09:00 +5°C° 0 mm 1 mps 735 mmHg 80%
    10:00 +5°C° 0.5 mm 1 mps 735 mmHg 79%
    11:00 +4°C° 0.5 mm 2 mps 735 mmHg 79%
    12:00 +5°C° 0.5 mm 2 mps 735 mmHg 79%
    13:00 +5°C° 0.5 mm 2 mps 735 mmHg 78%
    14:00 +6°C° 0.5 mm 2 mps 734 mmHg 78%
    15:00 +6°C° 0.5 mm 2 mps 734 mmHg 77%
    16:00 +7°C° 0.3 mm 1 mps 734 mmHg 78%
    17:00 +7°C° 0.3 mm 1 mps 734 mmHg 78%
    18:00 +7°C° 0.3 mm 1 mps 734 mmHg 79%
    19:00 +7°C° 0.3 mm 1 mps 734 mmHg 80%
    20:00 +7°C° 0.3 mm 1 mps 734 mmHg 81%
    21:00 +8°C° 0.3 mm 1 mps 734 mmHg 82%
    22:00 +7°C° 0.1 mm 2 mps 734 mmHg 85%
    23:00 +7°C° 0.1 mm 2 mps 734 mmHg 88%

    Tomorrow, 21 November, Wednesday

    Time Temperature Precipitation Wind Pressure Humidity
    00:00 +7°C° 0.1 mm 2 mps 735 mmHg 91%
    01:00 +7°C° 0 mm 2 mps 735 mmHg 91%
    02:00 +5°C° 0 mm 3 mps 735 mmHg 92%
    03:00 +5°C° 0 mm 3 mps 735 mmHg 92%
    04:00 +5°C° 0 mm 3 mps 735 mmHg 92%
    05:00 +6°C° 0 mm 2 mps 735 mmHg 92%
    06:00 +6°C° 0 mm 2 mps 735 mmHg 92%
    07:00 +6°C° 0 mm 2 mps 736 mmHg 91%
    08:00 +6°C° 0 mm 2 mps 736 mmHg 90%
    09:00 +6°C° 0 mm 2 mps 736 mmHg 89%
    10:00 +7°C° 0 mm 2 mps 736 mmHg 86%
    11:00 +7°C° 0 mm 2 mps 736 mmHg 83%
    12:00 +7°C° 0 mm 2 mps 735 mmHg 80%
    13:00 +7°C° 0 mm 2 mps 735 mmHg 81%
    14:00 +7°C° 0 mm 2 mps 735 mmHg 82%
    15:00 +6°C° 0 mm 2 mps 735 mmHg 83%
    16:00 +6°C° 0 mm 2 mps 735 mmHg 85%
    17:00 +6°C° 0 mm 2 mps 735 mmHg 87%
    18:00 +5°C° 0 mm 2 mps 735 mmHg 89%
    19:00 +5°C° 0 mm 2 mps 735 mmHg 90%
    20:00 +6°C° 0 mm 1 mps 735 mmHg 90%
    21:00 +6°C° 0 mm 1 mps 735 mmHg 91%
    22:00 +5°C° 0 mm 1 mps 735 mmHg 91%
    23:00 +5°C° 0 mm 1 mps 735 mmHg 91%

    Day after tomorrow, 22 November, Thursday

    Time Temperature Precipitation Wind Pressure Humidity
    00:00 +5°C° 0 mm 1 mps 734 mmHg 91%
    01:00 +5°C° 0 mm 1 mps 734 mmHg 91%
    02:00 +5°C° 0 mm 1 mps 734 mmHg 91%
    03:00 +5°C° 0 mm 1 mps 734 mmHg 91%
    04:00 +5°C° 0 mm 1 mps 734 mmHg 91%
    05:00 +5°C° 0 mm 1 mps 734 mmHg 91%
    06:00 +4°C° 0 mm 1 mps 734 mmHg 91%
    07:00 +5°C° 0 mm 1 mps 734 mmHg 89%
    08:00 +5°C° 0 mm 1 mps 734 mmHg 87%
    09:00 +5°C° 0 mm 1 mps 734 mmHg 86%
    10:00 +6°C° 0 mm 1 mps 734 mmHg 83%
    11:00 +6°C° 0 mm 1 mps 734 mmHg 80%
    12:00 +7°C° 0 mm 1 mps 734 mmHg 78%
    13:00 +7°C° 0 mm 1 mps 733 mmHg 77%
    14:00 +7°C° 0 mm 1 mps 733 mmHg 76%
    15:00 +7°C° 0 mm 1 mps 733 mmHg 76%
    16:00 +6°C° 0 mm 1 mps 733 mmHg 78%
    17:00 +6°C° 0 mm 1 mps 734 mmHg 80%
    18:00 +5°C° 0 mm 0 mps 734 mmHg 82%
    19:00 +6°C° 0 mm 1 mps 734 mmHg 82%
    20:00 +5°C° 0 mm 1 mps 734 mmHg 83%
    21:00 +5°C° 0 mm 1 mps 734 mmHg 84%
    22:00 +5°C° 0 mm 1 mps 734 mmHg 85%
    23:00 +4°C° 0 mm 1 mps 734 mmHg 86%

    23 November, Friday

    Time Temperature Precipitation Wind Pressure Humidity
    00:00 +4°C° 0 mm 1 mps 734 mmHg 87%
    01:00 +3°C° 0 mm 1 mps 734 mmHg 88%
    02:00 +3°C° 0 mm 1 mps 734 mmHg 89%
    03:00 +2°C° 0 mm 1 mps 734 mmHg 90%
    04:00 +2°C° 0 mm 1 mps 734 mmHg 90%
    05:00 +2°C° 0 mm 1 mps 734 mmHg 90%
    06:00 +1°C° 0 mm 2 mps 734 mmHg 90%
    07:00 +2°C° 0 mm 2 mps 735 mmHg 86%
    08:00 +3°C° 0 mm 2 mps 735 mmHg 82%
    09:00 +3°C° 0 mm 3 mps 735 mmHg 77%
    10:00 +4°C° 0 mm 3 mps 735 mmHg 69%
    11:00 +5°C° 0 mm 4 mps 735 mmHg 61%
    12:00 +6°C° 0 mm 5 mps 735 mmHg 52%
    13:00 +6°C° 0 mm 5 mps 736 mmHg 51%
    14:00 +5°C° 0 mm 5 mps 736 mmHg 49%
    15:00 +5°C° 0 mm 5 mps 737 mmHg 47%
    16:00 +4°C° 0 mm 4 mps 738 mmHg 53%
    17:00 +1°C° 0 mm 4 mps 739 mmHg 59%
    18:00 +1°C° 0 mm 3 mps 740 mmHg 65%
    19:00 +1°C° 0 mm 2 mps 740 mmHg 68%
    20:00 -1°C° 0 mm 2 mps 741 mmHg 72%
    21:00 +1°C° 0 mm 1 mps 742 mmHg 76%
    22:00 0°C° 0 mm 1 mps 742 mmHg 78%
    23:00 0°C° 0 mm 1 mps 743 mmHg 80%

    24 November, Saturday

    Time Temperature Precipitation Wind Pressure Humidity
    00:00 0°C° 0 mm 1 mps 743 mmHg 82%
    01:00 0°C° 0 mm 1 mps 743 mmHg 82%
    02:00 -3°C° 0 mm 2 mps 743 mmHg 82%
    03:00 -3°C° 0 mm 2 mps 743 mmHg 82%
    04:00 -3°C° 0 mm 2 mps 743 mmHg 82%
    05:00 -3°C° 0 mm 2 mps 743 mmHg 82%
    06:00 -3°C° 0 mm 2 mps 743 mmHg 83%
    07:00 -2°C° 0 mm 3 mps 744 mmHg 79%
    08:00 -2°C° 0 mm 3 mps 744 mmHg 76%
    09:00 -1°C° 0 mm 3 mps 744 mmHg 72%
    10:00 0°C° 0 mm 3 mps 743 mmHg 67%
    11:00 0°C° 0 mm 4 mps 743 mmHg 62%
    12:00 +1°C° 0 mm 4 mps 743 mmHg 57%
    13:00 +1°C° 0 mm 4 mps 742 mmHg 58%
    14:00 +1°C° 0 mm 4 mps 742 mmHg 59%
    15:00 +1°C° 0 mm 4 mps 742 mmHg 60%
    16:00 0°C° 0 mm 4 mps 742 mmHg 64%
    17:00 -1°C° 0 mm 4 mps 742 mmHg 68%
    18:00 -1°C° 0 mm 3 mps 742 mmHg 72%
    19:00 -1°C° 0 mm 3 mps 742 mmHg 70%
    20:00 -1°C° 0 mm 3 mps 742 mmHg 68%
    21:00 -2°C° 0 mm 2 mps 742 mmHg 66%
    22:00 -2°C° 0 mm 2 mps 741 mmHg 65%
    23:00 -2°C° 0 mm 2 mps 741 mmHg 64%

    25 November, Sunday

    Time Temperature Precipitation Wind Pressure Humidity
    00:00 -1°C° 0 mm 2 mps 741 mmHg 62%
    01:00 +1°C° 0 mm 1 mps 740 mmHg 62%
    02:00 +1°C° 0 mm 1 mps 740 mmHg 61%
    03:00 +1°C° 0 mm 1 mps 740 mmHg 60%
    04:00 +1°C° 0 mm 1 mps 739 mmHg 60%
    05:00 +1°C° 0 mm 1 mps 739 mmHg 59%
    06:00 +1°C° 0 mm 1 mps 739 mmHg 58%
    07:00 +2°C° 0 mm 1 mps 738 mmHg 55%
    08:00 +3°C° 0 mm 1 mps 738 mmHg 52%
    09:00 +3°C° 0 mm 0 mps 738 mmHg 49%
    10:00 +5°C° 0 mm 0 mps 737 mmHg 45%
    11:00 +6°C° 0 mm 0 mps 737 mmHg 41%
    12:00 +7°C° 0 mm 0 mps 736 mmHg 37%
    13:00 +7°C° 0 mm 0 mps 736 mmHg 39%
    14:00 +7°C° 0 mm 0 mps 736 mmHg 41%
    15:00 +7°C° 0 mm 0 mps 736 mmHg 44%
    16:00 +6°C° 0 mm 0 mps 736 mmHg 48%
    17:00 +5°C° 0 mm 0 mps 736 mmHg 51%
    18:00 +4°C° 0 mm 1 mps 736 mmHg 55%
    19:00 +4°C° 0 mm 1 mps 736 mmHg 55%
    20:00 +4°C° 0 mm 1 mps 735 mmHg 55%
    21:00 +4°C° 0 mm 1 mps 735 mmHg 55%
    22:00 +3°C° 0 mm 0 mps 735 mmHg 54%
    23:00 +3°C° 0 mm 0 mps 735 mmHg 53%
    Show more